Hourly Data Report for May 01, 1962

SHERBROOKE A
QUEBEC

45°26'00.000" N
71°41'00.000" W
241.40 m
7028124
71610
YSC

Download Data

Hourly Data (May 1962)
Hourly Data Report for May 1, 1962
TIME
LST
Temp Definition
°C
Dew Point Definition
°C
Rel Hum Definition
%
Precip. Amount Definition
mm

Wind Dir Definition
10's deg

Wind Spd Definition
km/h
Visibility Definition
km
Stn Press Definition
kPa
Hmdx Definition


Wind Chill Definition


Weather Definition


00:00 3.9 1.7 86   9 6 24.1 99.14     Cloudy
01:00 3.9 2.2 89   14 3 24.1 99.13     Cloudy
02:00 3.9 2.2 89   5 5 24.1 99.14     Cloudy
03:00 3.3 1.7 89   9 6 24.1 99.12     Cloudy
04:00 2.8 1.1 88   9 10 24.1 99.07     Mostly Cloudy
05:00 1.7 0.6 91   9 6 24.1 99.00     Mainly Clear
06:00 3.3 1.1 86   11 6 24.1 99.01     Mainly Clear
07:00 5.0 1.1 77   11 13 24.1 99.05     Mainly Clear
08:00 7.2 2.8 74   14 16 24.1 98.99     Mainly Clear
09:00 8.9 3.9 70   18 19 24.1 99.03     Mostly Cloudy
10:00 11.1 4.4 64   11 19 24.1 99.00     Mostly Cloudy
11:00 12.8 6.1 63   11 19 24.1 98.97     Mostly Cloudy
12:00 13.3 6.1 62   14 13 24.1 98.96     Mostly Cloudy
13:00 13.9 6.1 59   14 19 24.1 98.93     Mostly Cloudy
14:00 13.9 6.1 59   16 19 24.1 98.83     Mostly Cloudy
15:00 14.4 5.0 53   9 19 24.1 98.77     Mostly Cloudy
16:00 13.9 5.0 56   11 16 24.1 98.80     Mainly Clear
17:00 12.2 5.0 60   14 23 24.1 98.78     Mostly Cloudy
18:00 10.0 3.9 65   14 19 24.1 98.77     Mainly Clear
19:00 8.9 3.9 72   14 19 24.1 98.80     Mainly Clear
20:00 7.2 2.8 74   14 16 24.1 98.84     Mainly Clear
21:00 6.7 3.3 81   14 16 24.1 98.84     Mainly Clear
22:00 7.2 4.4 81   14 23 24.1 98.86     Mostly Cloudy
23:00 7.2 3.9 79   14 16 24.1 98.83     Cloudy

Notes on Data Quality.

Legend

  • E = Estimated
  • M = Missing
  • NA = Not Available*
  • [empty] = Indicates an unobserved value
Date modified: